1537401600.4,28192,21.44,74618.3,5.21,-23.39,-23.53,0,*77
1537401601.67,28193,21.44,74618.5,5.21,-23.49,-23.65,0,*74
1537401602.91,28194,21.44,74618.0,5.23,-23.49,-23.65,0,*71
1537401604.15,28195,21.44,74622.3,5.21,-23.39,-23.65,0,*75
1537401605.41,28196,21.44,74622.0,5.21,-23.49,-23.65,0,*71
1537401606.65,28197,21.44,74622.3,5.21,-23.39,-23.53,0,*72
1537401607.91,28198,21.44,74616.8,5.21,-23.49,-23.69,0,*73
1537401609.15,28199,21.44,74614.8,5.21,-23.39,-23.53,0,*7C
1537401610.36,28200,21.44,74616.3,5.23,-23.39,-23.65,0,*78
1537401611.57,28201,21.44,74618.3,5.23,-23.39,-23.53,0,*7C
1537401612.79,28202,21.44,74618.0,5.23,-23.39,-23.53,0,*7F
1537401614.0,28203,21.44,74618.8,5.23,-23.39,-23.49,0,*75
1537401615.2,28204,21.44,74616.0,5.25,-23.43,-23.59,0,*78
1537401616.43,28205,21.44,74618.5,5.25,-23.33,-23.59,0,*7E
1537401617.67,28206,21.44,74618.8,5.23,-23.49,-23.53,0,*7C
1537401618.91,28207,21.44,74616.3,5.23,-23.49,-23.65,0,*78
1537401620.14,28208,21.44,74616.0,5.25,-23.33,-23.75,0,*7D
1537401621.38,28209,21.44,74618.3,5.23,-23.49,-23.65,0,*76
1537401622.57,28210,21.44,74616.0,5.23,-23.39,-23.39,0,*70
1537401623.82,28211,21.44,74620.0,5.23,-23.29,-23.33,0,*7A
1537401625.06,28212,21.44,74618.3,5.23,-23.33,-23.53,0,*74
1537401626.3,28213,21.44,74618.0,5.23,-23.49,-23.65,0,*7D
1537401627.54,28214,21.44,74622.0,5.23,-23.49,-23.65,0,*7A
1537401628.79,28215,21.44,74618.8,5.25,-23.33,-23.49,0,*7E
1537401630.01,28216,21.44,74622.3,5.23,-23.39,-23.65,0,*7F
1537401631.21,28217,21.44,74616.3,5.25,-23.43,-23.59,0,*7A
1537401632.45,28218,21.44,74616.3,5.23,-23.49,-23.65,0,*76
1537401633.69,28219,21.44,74616.5,5.23,-23.49,-23.69,0,*7B
1537401634.9,28220,21.44,74622.8,5.25,-23.43,-23.59,0,*7E
1537401636.14,28221,21.44,74616.3,5.25,-23.49,-23.65,0,*7A
1537401637.34,28222,21.44,74620.3,5.25,-23.43,-23.59,0,*7C
1537401638.59,28223,21.44,74620.0,5.23,-23.49,-23.65,0,*7E
1537401639.79,28224,21.44,74616.5,5.25,-23.43,-23.59,0,*7A
1537401641.02,28225,21.44,74618.3,5.25,-23.43,-23.65,0,*74
1537401642.25,28226,21.44,74618.3,5.25,-23.43,-23.49,0,*79
1537401643.46,28227,21.44,74618.5,5.23,-23.39,-23.53,0,*78
1537401644.71,28228,21.44,74616.3,5.25,-23.33,-23.33,0,*7D
1537401645.94,28229,21.44,74620.0,5.25,-23.33,-23.43,0,*7B
1537401647.16,28230,21.44,74616.5,5.25,-23.43,-23.65,0,*70
1537401648.39,28231,21.44,74618.5,5.25,-23.59,-23.65,0,*7A
1537401649.61,28232,21.44,74618.0,5.25,-23.33,-23.59,0,*7A
1537401650.81,28233,21.44,74616.5,5.25,-23.43,-23.59,0,*7C
1537401652.03,28234,21.44,74616.3,5.29,-23.39,-23.53,0,*70
1537401653.25,28235,21.44,74616.8,5.25,-23.43,-23.65,0,*75
1537401654.5,28236,21.44,74616.5,5.25,-23.33,-23.49,0,*7F
1537401655.73,28237,21.44,74616.3,5.25,-23.33,-23.43,0,*74
1537401656.93,28238,21.44,74618.0,5.25,-23.43,-23.59,0,*77
1537401658.16,28239,21.44,74614.0,5.25,-23.43,-23.65,0,*79
1537401659.36,28240,21.44,74616.5,5.29,-23.43,-23.59,0,*74
1537401660.56,28241,21.44,74618.0,5.29,-23.43,-23.59,0,*75
1537401661.76,28242,21.44,74620.5,5.29,-23.43,-23.59,0,*76
1537401662.95,28243,21.44,74616.8,5.29,-23.39,-23.59,0,*7A
1537401664.17,28244,21.44,74616.5,5.29,-23.53,-23.59,0,*71
1537401665.37,28245,21.44,74616.0,5.29,-23.43,-23.59,0,*71
1537401666.61,28246,21.44,74618.0,5.29,-23.29,-23.53,0,*74
1537401667.81,28247,21.44,74616.5,5.29,-23.43,-23.59,0,*73
1537401669.0,28248,21.44,74616.3,5.29,-23.39,-23.43,0,*7A
1537401670.23,28249,21.44,74618.8,5.29,-23.23,-23.43,0,*70
1537401671.44,28250,21.44,74616.5,5.29,-23.39,-23.53,0,*72
1537401672.64,28251,21.44,74616.0,5.29,-23.43,-23.59,0,*74
1537401673.84,28252,21.44,74618.8,5.29,-23.43,-23.59,0,*77
1537401675.04,28253,21.44,74616.0,5.29,-23.43,-23.59,0,*76
1537401676.31,28254,21.44,74618.5,5.31,-23.53,-23.69,0,*7A
1537401677.53,28255,21.44,74618.0,5.29,-23.43,-23.69,0,*73
1537401678.72,28256,21.44,74616.3,5.29,-23.39,-23.59,0,*7E
1537401679.94,28257,21.44,74614.0,5.29,-23.39,-23.53,0,*75
1537401681.15,28258,21.44,74616.5,5.29,-23.39,-23.53,0,*7A
1537401682.35,28259,21.44,74618.5,5.29,-23.39,-23.43,0,*7A
1537401683.56,28260,21.44,74616.0,5.31,-23.39,-23.59,0,*72
1537401684.79,28261,21.44,74620.5,5.31,-23.43,-23.59,0,*7E
1537401686.01,28262,21.44,74616.0,5.29,-23.43,-23.53,0,*7E
1537401687.26,28263,21.44,74616.3,5.31,-23.29,-23.43,0,*7B
1537401688.5,28264,21.44,74616.5,5.31,-23.39,-23.53,0,*7C
1537401689.73,28265,21.44,74614.8,5.31,-23.39,-23.43,0,*7C
1537401690.95,28266,21.44,74612.8,5.31,-23.43,-23.59,0,*79
1537401692.2,28267,21.44,74616.5,5.31,-23.43,-23.53,0,*72
1537401693.45,28268,21.44,74618.5,5.31,-23.43,-23.53,0,*7D
1537401694.64,28269,21.44,74616.5,5.29,-23.39,-23.59,0,*72
1537401695.89,28270,21.44,74618.3,5.29,-23.53,-23.69,0,*75
1537401697.16,28271,21.44,74614.3,5.31,-23.53,-23.69,0,*7D
1537401698.4,28272,21.44,74618.8,5.29,-23.53,-23.69,0,*77
1537401699.65,28273,21.44,74618.8,5.31,-23.53,-23.59,0,*7C
1537401700.9,28274,21.44,74618.5,5.31,-23.43,-23.69,0,*79
1537401702.13,28275,21.44,74618.8,5.31,-23.43,-23.59,0,*7B
1537401703.37,28276,21.44,74620.3,5.29,-23.53,-23.69,0,*73
1537401704.57,28277,21.44,74616.5,5.29,-23.59,-23.59,0,*7B
1537401705.79,28278,21.44,74616.3,5.29,-23.43,-23.69,0,*7C
1537401706.99,28279,21.44,74616.5,5.33,-23.59,-23.75,0,*70
1537401708.24,28280,21.44,74618.8,5.31,-23.43,-23.69,0,*72
1537401709.52,28281,21.44,74618.0,5.31,-23.53,-23.85,0,*70
1537401710.74,28282,21.44,74618.8,5.29,-23.59,-23.69,0,*72
1537401711.96,28283,21.44,74616.5,5.31,-23.59,-23.75,0,*77
1537401713.19,28284,21.44,74616.0,5.31,-23.43,-23.59,0,*75
1537401714.44,28285,21.44,74616.5,5.31,-23.59,-23.85,0,*7E
1537401715.67,28286,21.44,74612.8,5.31,-23.59,-23.75,0,*72
1537401716.91,28287,21.44,74618.8,5.33,-23.65,-23.69,0,*73
1537401718.16,28288,21.44,74616.8,5.31,-23.53,-23.75,0,*76
1537401719.39,28289,21.44,74618.0,5.29,-23.53,-23.59,0,*70
1537401720.6,28290,21.44,74616.0,5.29,-23.39,-23.69,0,*77
1537401721.79,28291,21.44,74616.8,5.29,-23.39,-23.43,0,*7E
1537401723.04,28292,21.44,74618.8,5.31,-23.43,-23.69,0,*71
1537401724.32,28293,21.44,74620.5,5.31,-23.53,-23.69,0,*71
1537401725.56,28294,21.44,74618.0,5.33,-23.49,-23.69,0,*7F
1537401726.81,28295,21.44,74618.0,5.31,-23.59,-23.85,0,*7F
1537401728.04,28296,21.44,74620.5,5.31,-23.59,-23.75,0,*73
1537401729.29,28297,21.44,74616.5,5.31,-23.59,-23.85,0,*7D
1537401730.54,28298,21.44,74616.8,5.33,-23.53,-23.65,0,*74
1537401731.78,28299,21.44,74616.5,5.31,-23.53,-23.59,0,*78
1537401732.98,28300,21.44,74618.3,5.29,-23.59,-23.75,0,*74
1537401734.21,28301,21.44,74618.8,5.31,-23.43,-23.59,0,*79
1537401735.42,28302,21.44,74618.0,5.29,-23.39,-23.53,0,*74
1537401736.63,28303,21.44,74618.0,5.29,-23.43,-23.75,0,*7C
1537401737.85,28304,21.44,74618.3,5.33,-23.65,-23.79,0,*78
1537401739.06,28305,21.44,74616.8,5.29,-23.59,-23.69,0,*7C
1537401740.32,28306,21.44,74618.8,5.31,-23.59,-23.85,0,*74
1537401741.54,28307,21.44,74618.8,5.29,-23.53,-23.75,0,*79
1537401742.79,28308,21.44,74618.0,5.33,-23.49,-23.69,0,*7B
1537401744.01,28309,21.44,74618.8,5.31,-23.59,-23.75,0,*74
1537401745.24,28310,21.44,74616.5,5.31,-23.59,-23.75,0,*7C
1537401746.46,28311,21.44,74616.0,5.29,-23.43,-23.69,0,*72
1537401747.71,28312,21.44,74616.0,5.31,-23.59,-23.69,0,*73
1537401748.98,28313,21.44,74616.0,5.31,-23.53,-23.69,0,*78
1537401750.2,28314,21.44,74618.0,5.33,-23.49,-23.79,0,*77
1537401751.44,28315,21.44,74616.8,5.31,-23.69,-23.75,0,*7A
1537401752.67,28316,21.44,74616.0,5.29,-23.59,-23.85,0,*7C
1537401753.9,28317,21.44,74614.8,5.31,-23.59,-23.75,0,*7B
1537401755.14,28318,21.44,74616.5,5.29,-23.69,-23.85,0,*71
1537401756.34,28319,21.44,74618.0,5.29,-23.59,-23.75,0,*7C
1537401757.59,28320,21.44,74616.3,5.31,-23.75,-23.85,0,*7E
1537401758.85,28321,21.44,74618.8,5.31,-23.75,-23.85,0,*7F
1537401760.12,28322,21.44,74618.0,5.31,-23.69,-23.85,0,*71
1537401761.38,28323,21.44,74618.3,5.31,-23.75,-23.85,0,*7D
1537401762.63,28324,21.44,74616.5,5.31,-23.75,-23.85,0,*7A
1537401763.88,28325,21.44,74618.3,5.31,-23.85,-23.89,0,*78
1537401765.1,28326,21.44,74618.0,5.31,-23.75,-23.89,0,*74
1537401766.33,28327,21.44,74618.8,5.31,-23.75,-23.89,0,*75
1537401767.55,28328,21.44,74614.8,5.29,-23.75,-23.99,0,*72
1537401768.78,28329,21.44,74620.3,5.31,-23.75,-23.89,0,*7B
1537401770.01,28330,21.44,74616.0,5.29,-23.75,-23.85,0,*76
1537401771.25,28331,21.44,74620.5,5.29,-23.69,-23.85,0,*7A
1537401772.47,28332,21.44,74616.0,5.29,-23.59,-23.85,0,*7A
1537401773.67,28333,21.44,74616.8,5.29,-23.59,-23.75,0,*74
1537401774.9,28334,21.44,74618.3,5.29,-23.59,-23.85,0,*7C
1537401776.17,28335,21.44,74616.0,5.31,-23.69,-23.85,0,*77
1537401777.4,28336,21.44,74618.0,5.29,-23.75,-23.85,0,*70
1537401778.64,28337,21.44,74616.8,5.29,-23.69,-23.85,0,*7C
1537401779.87,28338,21.44,74618.3,5.29,-23.59,-23.85,0,*70
1537401781.11,28339,21.44,74616.3,5.29,-23.69,-23.85,0,*72
1537401782.35,28340,21.44,74616.0,5.29,-23.69,-23.85,0,*7C
1537401783.58,28341,21.44,74618.3,5.29,-23.59,-23.85,0,*7E
1537401784.82,28342,21.44,74620.3,5.29,-23.69,-23.85,0,*7E
1537401786.09,28343,21.44,74616.5,5.31,-23.69,-23.85,0,*76
1537401787.29,28344,21.44,74616.8,5.29,-23.59,-23.75,0,*74
1537401788.51,28345,21.44,74618.0,5.33,-23.65,-23.79,0,*7D
1537401789.71,28346,21.44,74618.8,5.29,-23.59,-23.75,0,*76
1537401790.93,28347,21.44,74620.0,5.29,-23.43,-23.69,0,*71
1537401792.13,28348,21.44,74616.8,5.29,-23.59,-23.75,0,*78
1537401793.36,28349,21.44,74616.3,5.31,-23.59,-23.75,0,*70
1537401794.56,28350,21.44,74616.0,5.29,-23.59,-23.75,0,*71
1537401795.76,28351,21.44,74618.3,5.29,-23.59,-23.75,0,*70
1537401796.98,28352,21.44,74616.3,5.31,-23.59,-23.75,0,*7A
1537401798.18,28353,21.44,74622.0,5.29,-23.59,-23.75,0,*72
1537401799.43,28354,21.44,74618.0,5.29,-23.53,-23.85,0,*70
1537401800.65,28355,21.44,74616.8,5.29,-23.69,-23.75,0,*77
1537401801.87,28356,21.44,74616.5,5.29,-23.43,-23.69,0,*71
1537401803.1,28357,21.44,74616.3,5.29,-23.53,-23.59,0,*72
1537401804.37,28358,21.44,74618.3,5.31,-23.53,-23.69,0,*77
1537401805.62,28359,21.44,74616.5,5.31,-23.53,-23.59,0,*75
1537401806.84,28360,21.44,74616.5,5.29,-23.59,-23.69,0,*7F
1537401808.09,28361,21.44,74620.3,5.29,-23.53,-23.85,0,*76
1537401809.33,28362,21.44,74616.3,5.29,-23.53,-23.69,0,*77
1537401810.55,28363,21.44,74622.0,5.29,-23.59,-23.69,0,*7C
1537401811.75,28364,21.44,74618.3,5.25,-23.59,-23.79,0,*76
1537401812.95,28365,21.44,74616.5,5.29,-23.59,-23.75,0,*77
1537401814.17,28366,21.44,74616.5,5.29,-23.53,-23.59,0,*70
1537401815.45,28367,21.44,74616.8,5.31,-23.53,-23.85,0,*79
1537401816.67,28368,21.44,74620.0,5.29,-23.59,-23.69,0,*77
1537401817.89,28369,21.44,74618.3,5.29,-23.53,-23.59,0,*7F
1537401819.14,28370,21.44,74620.8,5.29,-23.53,-23.69,0,*74
1537401820.41,28371,21.44,74620.8,5.31,-23.69,-23.85,0,*77
1537401821.63,28372,21.44,74618.8,5.29,-23.53,-23.75,0,*7B
1537401822.83,28373,21.44,74618.3,5.29,-23.59,-23.75,0,*70
1537401824.06,28374,21.44,74618.3,5.29,-23.53,-23.75,0,*7D
1537401825.28,28375,21.44,74616.5,5.29,-23.59,-23.85,0,*79
1537401826.5,28376,21.44,74616.0,5.29,-23.69,-23.75,0,*76
1537401827.74,28377,21.44,74618.5,5.29,-23.69,-23.85,0,*78
1537401828.94,28378,21.44,74616.8,5.29,-23.59,-23.75,0,*7B
1537401830.14,28379,21.44,74616.8,5.25,-23.75,-23.89,0,*7B
1537401831.35,28380,21.44,74620.5,5.25,-23.75,-23.79,0,*72
1537401832.57,28381,21.44,74618.3,5.25,-23.65,-23.89,0,*7D
1537401833.79,28382,21.44,74616.8,5.25,-23.65,-23.79,0,*71
1537401834.99,28383,21.44,74618.8,5.25,-23.75,-23.79,0,*71
1537401836.22,28384,21.44,74620.0,5.25,-23.65,-23.79,0,*77
1537401837.46,28385,21.44,74616.3,5.23,-23.65,-23.85,0,*73
1537401838.69,28386,21.44,74618.5,5.29,-23.53,-23.75,0,*70
1537401839.91,28387,21.38,74614.3,5.29,-23.53,-23.75,0,*71
1537401841.14,28388,21.44,74618.8,5.29,-23.59,-23.85,0,*7B
1537401842.36,28389,21.44,74616.8,5.29,-23.69,-23.75,0,*76
1537401843.56,28390,21.44,74616.3,5.25,-23.75,-23.89,0,*7C
1537401844.78,28391,21.44,74618.3,5.25,-23.65,-23.89,0,*7C
1537401845.98,28392,21.44,74616.8,5.23,-23.75,-23.89,0,*78
1537401847.22,28393,21.44,74618.8,5.23,-23.65,-23.85,0,*74
1537401848.47,28394,21.44,74618.5,5.25,-23.49,-23.65,0,*75
1537401849.69,28395,21.44,74616.0,5.23,-23.59,-23.65,0,*73
1537401850.89,28396,21.44,74616.5,5.25,-23.43,-23.59,0,*72
1537401852.11,28397,21.38,74616.8,5.23,-23.39,-23.65,0,*77
1537401853.35,28398,21.44,74618.3,5.23,-23.49,-23.65,0,*7F
1537401854.58,28399,21.44,74616.8,5.25,-23.49,-23.75,0,*79
1537401855.78,28400,21.44,74616.5,5.25,-23.43,-23.75,0,*74
1537401857.01,28401,21.44,74618.8,5.25,-23.43,-23.65,0,*74
1537401858.25,28402,21.44,74618.3,5.25,-23.49,-23.65,0,*7D
1537401859.5,28403,21.44,74616.8,5.25,-23.49,-23.65,0,*7C
1537401860.72,28404,21.44,74620.0,5.29,-23.43,-23.53,0,*78
1537401861.94,28405,21.44,74618.3,5.23,-23.33,-23.59,0,*7E
1537401863.19,28406,21.38,74612.5,5.23,-23.49,-23.53,0,*7A
1537401864.41,28407,21.44,74616.5,5.25,-23.43,-23.65,0,*72
1537401865.66,28408,21.44,74616.5,5.25,-23.33,-23.49,0,*74
1537401866.86,28409,21.44,74616.0,5.25,-23.43,-23.59,0,*73
1537401868.11,28410,21.44,74618.5,5.25,-23.29,-23.49,0,*76
1537401869.33,28411,21.44,74618.5,5.25,-23.39,-23.53,0,*7D
1537401870.56,28412,21.44,74616.5,5.25,-23.33,-23.43,0,*75
1537401871.76,28413,21.44,74618.0,5.25,-23.43,-23.59,0,*78
1537401872.99,28414,21.44,74616.5,5.25,-23.43,-23.65,0,*70
1537401874.24,28415,21.44,74618.8,5.25,-23.49,-23.49,0,*75
1537401875.47,28416,21.44,74616.0,5.25,-23.43,-23.49,0,*7C
1537401876.7,28417,21.44,74618.0,5.25,-23.43,-23.49,0,*7D
1537401877.95,28418,21.44,74618.3,5.25,-23.33,-23.49,0,*75
1537401879.16,28419,21.44,74616.8,5.29,-23.39,-23.53,0,*79
1537401880.36,28420,21.38,74616.5,5.29,-23.39,-23.43,0,*72
1537401881.56,28421,21.44,74620.0,5.25,-23.43,-23.59,0,*79
1537401882.81,28422,21.38,74616.8,5.25,-23.33,-23.49,0,*7C
1537401884.03,28423,21.38,74614.8,5.29,-23.29,-23.43,0,*70
1537401885.3,28424,21.38,74616.8,5.31,-23.29,-23.29,0,*72
1537401886.52,28425,21.44,74618.3,5.29,-23.29,-23.39,0,*7B
1537401887.75,28426,21.44,74618.3,5.29,-23.29,-23.43,0,*75
1537401888.98,28427,21.38,74614.3,5.29,-23.29,-23.43,0,*74
1537401890.17,28428,21.44,74616.5,5.29,-23.39,-23.43,0,*7A
1537401891.42,28429,21.44,74616.8,5.31,-23.29,-23.39,0,*7E
1537401892.65,28430,21.44,74618.8,5.29,-23.29,-23.43,0,*72
1537401893.86,28431,21.38,74612.8,5.29,-23.29,-23.39,0,*7E
1537401895.09,28432,21.38,74612.5,5.29,-23.29,-23.43,0,*70
1537401896.32,28433,21.44,74616.3,5.29,-23.29,-23.43,0,*71
1537401897.54,28434,21.38,74616.5,5.29,-23.29,-23.43,0,*76
1537401898.76,28435,21.44,74616.5,5.29,-23.29,-23.39,0,*7A
1537401900.01,28436,21.44,74620.0,5.29,-23.29,-23.29,0,*78
1537401901.26,28437,21.38,74616.3,5.31,-23.29,-23.43,0,*7C
1537401902.5,28438,21.38,74618.3,5.31,-23.29,-23.39,0,*7E
1537401903.73,28439,21.38,74616.5,5.29,-23.29,-23.43,0,*7B
1537401905.0,28440,21.44,74618.8,5.31,-23.29,-23.53,0,*7D
1537401906.22,28441,21.44,74616.3,5.31,-23.39,-23.43,0,*7C
1537401907.47,28442,21.38,74618.5,5.31,-23.29,-23.39,0,*73
1537401908.69,28443,21.44,74616.0,5.31,-23.39,-23.43,0,*7E
1537401909.95,28444,21.44,74618.8,5.31,-23.29,-23.43,0,*78
1537401911.2,28445,21.44,74616.0,5.31,-23.29,-23.43,0,*79
1537401912.45,28446,21.44,74616.3,5.31,-23.29,-23.43,0,*7A
1537401913.69,28447,21.44,74618.5,5.31,-23.39,-23.53,0,*7B
1537401914.95,28448,21.38,74616.3,5.31,-23.29,-23.43,0,*74
1537401916.19,28449,21.44,74616.5,5.31,-23.39,-23.53,0,*75
1537401917.44,28450,21.44,74616.0,5.31,-23.29,-23.43,0,*7D
1537401918.69,28451,21.44,74618.8,5.31,-23.29,-23.39,0,*71
1537401919.9,28452,21.44,74620.0,5.29,-23.39,-23.53,0,*76
1537401921.12,28453,21.38,74618.5,5.33,-23.33,-23.39,0,*7A
1537401922.37,28454,21.44,74618.3,5.31,-23.29,-23.43,0,*79
1537401923.59,28455,21.38,74616.5,5.33,-23.33,-23.39,0,*7C
1537401924.81,28456,21.44,74618.3,5.31,-23.39,-23.43,0,*7A
1537401926.06,28457,21.38,74616.3,5.31,-23.29,-23.39,0,*77
1537401927.3,28458,21.44,74620.0,5.31,-23.39,-23.53,0,*75
1537401928.58,28459,21.38,74616.8,5.35,-23.33,-23.49,0,*71
1537401929.79,28460,21.44,74616.8,5.33,-23.39,-23.49,0,*77
1537401931.01,28461,21.44,74618.0,5.33,-23.23,-23.39,0,*7A
1537401932.26,28462,21.38,74616.3,5.33,-23.33,-23.49,0,*7F
1537401933.47,28463,21.44,74618.0,5.33,-23.39,-23.49,0,*74
1537401934.69,28464,21.38,74618.5,5.33,-23.39,-23.49,0,*73
1537401935.91,28465,21.44,74618.8,5.33,-23.23,-23.39,0,*7E
1537401937.15,28466,21.38,74618.8,5.33,-23.33,-23.49,0,*7B
1537401938.37,28467,21.44,74616.8,5.33,-23.33,-23.39,0,*7D
1537401939.59,28468,21.38,74612.5,5.33,-23.23,-23.39,0,*73
1537401940.84,28469,21.38,74618.3,5.33,-23.33,-23.49,0,*74
1537401942.05,28470,21.44,74618.5,5.33,-23.39,-23.49,0,*76
1537401943.3,28471,21.38,74616.0,5.33,-23.33,-23.49,0,*7D
1537401944.55,28472,21.38,74618.8,5.33,-23.33,-23.49,0,*7E
1537401945.79,28473,21.44,74618.3,5.33,-23.33,-23.65,0,*71
1537401946.98,28474,21.44,74618.8,5.33,-23.39,-23.39,0,*75
1537401948.22,28475,21.44,74622.0,5.33,-23.33,-23.53,0,*72
1537401949.5,28476,21.38,74616.8,5.35,-23.33,-23.49,0,*7C
1537401950.77,28477,21.38,74616.0,5.35,-23.33,-23.49,0,*7D
1537401951.99,28478,21.38,74614.3,5.33,-23.39,-23.49,0,*7E
1537401953.21,28479,21.38,74618.8,5.33,-23.39,-23.49,0,*7F
1537401954.48,28480,21.38,74618.5,5.35,-23.33,-23.49,0,*75
1537401955.72,28481,21.38,74616.3,5.33,-23.33,-23.53,0,*79
1537401956.97,28482,21.38,74618.3,5.33,-23.33,-23.49,0,*71
1537401958.24,28483,21.44,74618.3,5.35,-23.33,-23.53,0,*7D
1537401959.46,28484,21.38,74616.8,5.33,-23.39,-23.49,0,*7D
1537401960.67,28485,21.44,74618.5,5.33,-23.39,-23.53,0,*77
1537401961.92,28486,21.38,74616.8,5.35,-23.39,-23.49,0,*79
1537401963.13,28487,21.44,74620.3,5.33,-23.39,-23.53,0,*75
1537401964.41,28488,21.44,74618.0,5.35,-23.49,-23.53,0,*7B
1537401965.68,28489,21.44,74622.0,5.35,-23.49,-23.53,0,*7A
1537401966.92,28490,21.38,74616.8,5.33,-23.49,-23.65,0,*71
1537401968.16,28491,21.44,74618.8,5.35,-23.39,-23.65,0,*71
1537401969.44,28492,21.38,74616.3,5.35,-23.49,-23.65,0,*75
1537401970.65,28493,21.44,74620.0,5.33,-23.39,-23.65,0,*75
1537401971.9,28494,21.38,74614.5,5.35,-23.33,-23.39,0,*77
1537401973.17,28495,21.38,74616.8,5.35,-23.33,-23.53,0,*7A
1537401974.42,28496,21.44,74620.8,5.35,-23.39,-23.49,0,*78
1537401975.66,28497,21.38,74616.3,5.35,-23.39,-23.53,0,*72
1537401976.91,28498,21.38,74616.8,5.35,-23.39,-23.49,0,*76
1537401978.18,28499,21.38,74616.8,5.35,-23.33,-23.65,0,*73
1537401979.45,28500,21.38,74616.8,5.35,-23.33,-23.53,0,*77
1537401980.7,28501,21.44,74622.8,5.35,-23.33,-23.39,0,*7A
1537401981.94,28502,21.44,74620.3,5.35,-23.39,-23.65,0,*7A
1537401983.17,28503,21.38,74618.5,5.37,-23.33,-23.43,0,*77
1537401984.42,28504,21.38,74618.5,5.37,-23.33,-23.49,0,*7A
1537401985.62,28505,21.44,74620.0,5.37,-23.43,-23.59,0,*7D
1537401986.85,28506,21.38,74616.3,5.37,-23.29,-23.43,0,*79
1537401988.1,28507,21.44,74620.8,5.41,-23.23,-23.23,0,*75
1537401989.32,28508,21.38,74618.5,5.37,-23.19,-23.13,0,*71
1537401990.55,28509,21.38,74614.5,5.37,-23.29,-23.43,0,*76
1537401991.8,28510,21.38,74616.8,5.41,-23.29,-23.29,0,*73
1537401993.02,28511,21.38,74616.3,5.37,-23.43,-23.49,0,*79
1537401994.27,28512,21.44,74618.5,5.37,-23.33,-23.49,0,*7D
1537401995.5,28513,21.38,74616.8,5.37,-23.43,-23.49,0,*7B
1537401996.72,28514,21.38,74618.8,5.41,-23.23,-23.39,0,*7C
1537401997.91,28515,21.44,74620.8,5.41,-23.13,-23.39,0,*7E
1537401999.14,28516,21.38,74618.8,5.41,-23.29,-23.43,0,*79
1537402000.39,28517,21.38,74616.3,5.37,-23.33,-23.49,0,*78
1537402001.63,28518,21.38,74612.8,5.41,-23.29,-23.29,0,*7B
1537402002.86,28519,21.44,74618.8,5.37,-23.43,-23.33,0,*7C
1537402004.09,28520,21.38,74618.3,5.37,-23.43,-23.49,0,*7B
1537402005.28,28521,21.44,74620.0,5.41,-23.39,-23.43,0,*7C
1537402006.53,28522,21.38,74618.3,5.41,-23.29,-23.53,0,*7F
1537402007.75,28523,21.38,74616.3,5.41,-23.29,-23.39,0,*72
1537402008.99,28524,21.38,74620.3,5.41,-23.23,-23.29,0,*7E
1537402010.21,28525,21.38,74616.3,5.41,-23.33,-23.43,0,*72
1537402011.44,28526,21.38,74618.5,5.37,-23.33,-23.43,0,*70
1537402012.68,28527,21.38,74618.0,5.41,-23.29,-23.53,0,*7A
1537402013.87,28528,21.38,74618.8,5.41,-23.39,-23.39,0,*78
1537402015.06,28529,21.38,74620.0,5.41,-23.39,-23.39,0,*79
1537402016.26,28530,21.38,74620.5,5.41,-23.39,-23.43,0,*7C
1537402017.47,28531,21.38,74616.8,5.41,-23.39,-23.53,0,*7C
1537402018.67,28532,21.38,74616.0,5.41,-23.39,-23.43,0,*7E
1537402019.89,28533,21.44,74620.8,5.41,-23.29,-23.43,0,*7E
1537402021.12,28534,21.38,74622.5,5.37,-23.43,-23.49,0,*7E
1537402022.37,28535,21.38,74616.3,5.41,-23.23,-23.29,0,*7E
1537402023.58,28536,21.38,74616.3,5.41,-23.39,-23.53,0,*7B
1537402024.79,28537,21.38,74618.0,5.41,-23.39,-23.53,0,*7A
1537402026.02,28538,21.38,74618.8,5.41,-23.43,-23.49,0,*73
1537402027.26,28539,21.38,74618.8,5.43,-23.23,-23.39,0,*71
1537402028.46,28540,21.38,74620.0,5.41,-23.39,-23.43,0,*7B
1537402029.65,28541,21.38,74620.8,5.41,-23.39,-23.43,0,*7A
1537402030.9,28542,21.38,74618.0,5.41,-23.53,-23.69,0,*7D
1537402032.11,28543,21.38,74620.0,5.41,-23.43,-23.43,0,*75
1537402033.32,28544,21.38,74620.3,5.41,-23.39,-23.53,0,*7E
1537402034.53,28545,21.38,74618.5,5.41,-23.39,-23.53,0,*7F
1537402035.73,28546,21.44,74624.0,5.41,-23.43,-23.59,0,*7B
1537402036.96,28547,21.38,74616.5,5.41,-23.53,-23.43,0,*70
1537402038.18,28548,21.38,74620.8,5.41,-23.53,-23.59,0,*74
1537402039.39,28549,21.38,74620.8,5.41,-23.43,-23.43,0,*7F
1537402040.58,28550,21.38,74618.5,5.41,-23.43,-23.39,0,*7A
1537402041.8,28551,21.38,74616.5,5.41,-23.39,-23.49,0,*71
1537402043.01,28552,21.38,74618.5,5.41,-23.39,-23.53,0,*79
1537402044.26,28553,21.38,74616.3,5.41,-23.53,-23.53,0,*74
1537402045.48,28554,21.38,74618.5,5.41,-23.53,-23.39,0,*7F
1537402046.73,28555,21.44,74620.5,5.43,-23.33,-23.39,0,*7A
1537402047.94,28556,21.38,74616.0,5.41,-23.39,-23.53,0,*7D
1537402049.19,28557,21.38,74618.8,5.43,-23.33,-23.39,0,*78
1537402050.37,28558,21.38,74616.8,5.41,-23.39,-23.59,0,*79
1537402051.61,28559,21.38,74618.3,5.43,-23.39,-23.53,0,*70
1537402052.86,28560,21.38,74618.8,5.43,-23.23,-23.39,0,*7D
1537402054.06,28561,21.38,74618.0,5.41,-23.43,-23.43,0,*75
1537402055.28,28562,21.38,74618.5,5.41,-23.39,-23.49,0,*71
1537402056.55,28563,21.38,74618.8,5.43,-23.33,-23.49,0,*78
1537402057.77,28564,21.38,74616.5,5.41,-23.39,-23.49,0,*77
1537402059.01,28565,21.38,74620.0,5.43,-23.39,-23.49,0,*74
1537402060.25,28566,21.38,74618.5,5.43,-23.39,-23.53,0,*7C
1537402061.5,28567,21.38,74620.8,5.41,-23.49,-23.53,0,*78
1537402062.72,28568,21.38,74618.0,5.41,-23.43,-23.53,0,*7D
1537402063.96,28569,21.38,74618.5,5.43,-23.39,-23.49,0,*78
1537402065.24,28570,21.38,74618.8,5.43,-23.49,-23.49,0,*77
1537402066.48,28571,21.38,74616.8,5.41,-23.53,-23.53,0,*74
1537402067.72,28572,21.38,74616.8,5.43,-23.39,-23.53,0,*79
1537402068.96,28573,21.38,74620.5,5.41,-23.53,-23.69,0,*7F
1537402070.24,28574,21.38,74616.8,5.43,-23.49,-23.65,0,*7D
1537402071.5,28575,21.38,74620.3,5.43,-23.49,-23.65,0,*7C
1537402072.77,28576,21.38,74618.0,5.43,-23.49,-23.53,0,*7A
1537402074.02,28577,21.38,74618.5,5.43,-23.49,-23.59,0,*71
1537402075.29,28578,21.38,74622.8,5.43,-23.49,-23.53,0,*74
1537402076.51,28579,21.38,74622.0,5.43,-23.39,-23.39,0,*7E
1537402077.71,28580,21.38,74622.0,5.41,-23.43,-23.59,0,*71
1537402078.98,28581,21.38,74616.5,5.43,-23.49,-23.65,0,*77
1537402080.2,28582,21.38,74616.8,5.41,-23.43,-23.53,0,*79
1537402081.47,28583,21.38,74620.3,5.43,-23.49,-23.49,0,*7B
1537402082.71,28584,21.38,74616.8,5.43,-23.39,-23.53,0,*70
1537402083.95,28585,21.38,74618.3,5.43,-23.39,-23.49,0,*7A
1537402085.22,28586,21.38,74616.8,5.43,-23.49,-23.65,0,*70
1537402086.46,28587,21.38,74618.8,5.43,-23.39,-23.53,0,*73
1537402087.69,28588,21.44,74622.5,5.41,-23.53,-23.59,0,*78
1537402088.96,28589,21.38,74618.0,5.43,-23.49,-23.53,0,*7A
1537402090.23,28590,21.38,74620.8,5.43,-23.49,-23.65,0,*77
1537402091.42,28591,21.38,74616.8,5.45,-23.43,-23.59,0,*75
1537402092.65,28592,21.38,74618.8,5.45,-23.33,-23.43,0,*7A
1537402093.88,28593,21.38,74616.3,5.45,-23.43,-23.49,0,*76
1537402095.09,28594,21.38,74618.8,5.45,-23.33,-23.59,0,*77
1537402096.34,28595,21.38,74616.3,5.45,-23.33,-23.49,0,*77
1537402097.57,28596,21.38,74618.5,5.45,-23.43,-23.49,0,*73
1537402098.79,28597,21.38,74616.5,5.45,-23.33,-23.43,0,*7F
1537402100.04,28598,21.38,74618.5,5.45,-23.33,-23.49,0,*7A